Deering, AK

1:46 AM AKDT on June 25, 2017 (GMT -0800)
Deering (New)

Weather History for PADE - December, 2012

Change the Weather History Date:

Monday, December 24, 2012

  Actual Average (PAOT) Record (PAOT)
Temperature  
Mean Temperature -19 °F -  
Max Temperature -9 °F 8 °F 33 °F (1983)
Min Temperature -29 °F -6 °F -41 °F (1957)
Degree Days  
Heating Degree Days 84    
Moisture  
Dew Point -26 °F    
Average Humidity 76    
Maximum Humidity 82    
Minimum Humidity 69    
Precipitation  
Precipitation 0.00 in - - ()
Sea Level Pressure  
Sea Level Pressure 29.76 in    
Wind  
Wind Speed 6 mph (SSE)    
Max Wind Speed 10 mph    
Max Gust Speed -    
Visibility 10 miles    
Events      
Averages and records for this station are not official NWS values.
T = Trace of Precipitation, MM = Missing Value Source: NWS Daily Summary

Daily Weather History Graph

Daily Weather History Graph

Search for Another Location

Airport or City:

Trip Planner

Search our weather history database for the weather conditions in past years. The results will help you decide how hot, cold, wet, or windy it might be!

Date:

Astronomy

Dec. 24, 2012 Rise Set
Actual Time 12:28 PM AKST 3:13 PM AKST
Civil Twilight 10:46 AM AKST 4:55 PM AKST
Nautical Twilight 9:29 AM AKST 6:12 PM AKST
Astronomical Twilight 8:24 AM AKST 7:18 PM AKST
Moon 1:44 PM AKST (12/24) 8:18 AM AKST (12/24)
Length of Visible Light 6h 08m
Length of Day
2h 45m
Waxing Gibbous, 89% of the Moon is Illuminated
Dec 24
Waxing Gibbous
Dec 28
Full
Jan 4
Last Quarter
Jan 11
New
Jan 18
First Quarter

Hourly Weather History & Observations

Time (AKST) Temp. Windchill Dew Point Humidity Pressure Visibility Wind Dir Wind Speed Gust Speed Precip Events Conditions
12:53 AM -11.0 °F -29.9 °F -18.0 °F 71% 29.88 in 10.0 mi ENE 10.4 mph - N/A   Clear
1:53 AM -11.9 °F - -17.0 °F 78% 29.88 in 10.0 mi Calm Calm - N/A   Clear
3:53 AM -11.0 °F -27.6 °F -18.0 °F 71% 29.85 in 10.0 mi ENE 8.1 mph - N/A   Clear
4:53 AM -11.0 °F -26.2 °F -17.0 °F 75% 29.83 in 10.0 mi NE 6.9 mph - N/A   Clear
5:53 AM -9.9 °F -23.4 °F -16.1 °F 74% 29.81 in 10.0 mi ENE 5.8 mph - N/A   Clear
6:53 AM -11.0 °F -27.6 °F -17.0 °F 75% 29.80 in 10.0 mi NE 8.1 mph - N/A   Clear
7:53 AM -9.9 °F -27.5 °F -16.1 °F 74% 29.79 in 10.0 mi ENE 9.2 mph - N/A   Clear
8:53 AM -11.9 °F -29.9 °F -18.0 °F 74% 29.78 in 10.0 mi NE 9.2 mph - N/A   Clear
9:53 AM -14.1 °F - -18.9 °F 79% 29.77 in 10.0 mi Calm Calm - N/A   Clear
10:53 AM -15.0 °F -27.4 °F -18.9 °F 82% 29.77 in 10.0 mi NNE 4.6 mph - N/A   Clear
11:53 AM -18.0 °F - -23.1 °F 78% 29.76 in 10.0 mi Calm Calm - N/A   Clear
12:53 PM -26.0 °F - -31.0 °F 77% 29.75 in 10.0 mi Calm Calm - N/A   Clear
1:53 PM -26.0 °F -37.5 °F -31.0 °F 77% 29.75 in 10.0 mi West 3.5 mph - N/A   Clear
2:53 PM -27.0 °F -47.1 °F -31.0 °F 81% 29.74 in 10.0 mi SSW 8.1 mph - N/A   Clear
3:53 PM -27.0 °F -43.7 °F -31.0 °F 81% 29.73 in 10.0 mi South 5.8 mph - N/A   Clear
4:53 PM -27.9 °F -44.7 °F -32.1 °F 81% 29.72 in 10.0 mi South 5.8 mph - N/A   Clear
5:53 PM -29.0 °F -41.0 °F -34.1 °F 77% 29.72 in 10.0 mi SW 3.5 mph - N/A   Clear
6:53 PM -27.0 °F -48.5 °F -31.0 °F 81% 29.71 in 10.0 mi South 9.2 mph - N/A   Clear
7:53 PM -29.0 °F -46.0 °F -35.0 °F 73% 29.70 in 10.0 mi South 5.8 mph - N/A   Clear
8:53 PM -27.9 °F -46.6 °F -34.1 °F 73% 29.70 in 10.0 mi SSW 6.9 mph - N/A   Clear
9:53 PM -29.0 °F -47.9 °F -34.1 °F 77% 29.68 in 10.0 mi SW 6.9 mph - N/A   Clear
10:53 PM -27.0 °F -38.7 °F -33.0 °F 73% 29.67 in 10.0 mi WSW 3.5 mph - N/A   Clear
11:53 PM -27.9 °F -42.5 °F -35.0 °F 69% 29.66 in 10.0 mi SSW 4.6 mph - N/A   Clear